This demonstration page uses our WeatherBlox Daily Observations layout. Learn more.

Left ArrowRight Arrow

39.01783, -85.05884

Hourly Observations for April 28, 2018

Temp ( °F °C ) Dew Point ( °F °C ) Humidity (%) Winds ( mph kmh ) Pressure ( in mb ) Visibility ( mi km ) Precip ( " mm )
12:52 am 00:52 Mostly Clear 53 11.7 31 -0.6 43 43 SW 5 7 29.77 1008 10 16 N/A
1:52 am 01:52 Partly Cloudy 50 10 34 1.1 54 54 SSW 7 11 29.76 1008 10 16 N/A
2:52 am 02:52 Partly Cloudy 51 10.6 35 1.7 54 54 SSW 8 13 29.73 1007 10 16 N/A
3:52 am 03:52 Partly Cloudy 53 11.7 35 1.7 51 51 SSW 8 13 29.72 1006 10 16 N/A
4:52 am 04:52 Clear 55 12.8 34 1.1 45 45 WSW 10 17 29.72 1006 10 16 N/A
5:52 am 05:52 Partly Cloudy 53 11.7 35 1.7 51 51 W 12 19 29.74 1007 10 16 N/A
6:52 am 06:52 Mostly Sunny 51 10.6 36 2.2 56 56 W 14 22 29.77 1008 10 16 N/A
7:52 am 07:52 Mostly Sunny 47 8.3 39 3.9 74 74 NNW 22 35 29.83 1010 10 16 N/A
8:52 am 08:52 Partly Cloudy 49 9.4 39 3.9 69 69 NNW 21 33 29.87 1012 10 16 N/A
9:30 am 09:30 Mostly Cloudy 49 9.4 39 3.9 69 69 NNW 18 30 29.91 1013 10 16 N/A
9:52 am 09:52 Cloudy 48 8.9 39 3.9 71 71 NNW 15 24 29.91 1013 10 16 N/A
10:52 am 10:52 Cloudy 46 7.8 38 3.3 73 73 NNW 16 26 29.96 1014 10 16 N/A
11:52 am 11:52 Cloudy 47 8.3 38 3.3 71 71 NNW 12 19 29.98 1015 10 16 N/A
12:52 pm 12:52 Cloudy 51 10.6 36 2.2 56 56 NW 12 19 29.99 1016 10 16 N/A
1:48 pm 13:48 Mostly Cloudy 54 12 34 1 47 47 WNW 14 22 30.00 1016 10 16 N/A
1:52 pm 13:52 Partly Cloudy 55 12.8 34 1.1 45 45 WNW 13 20 30.00 1016 10 16 N/A
2:40 pm 14:40 Partly Cloudy 55 12.8 34 1.1 45 45 N 17 28 30.03 1017 10 16 N/A
2:52 pm 14:52 Mostly Cloudy 56 13.3 34 1.1 44 44 N 18 30 30.02 1017 10 16 N/A
3:52 pm 15:52 Mostly Cloudy 54 12.2 32 undefined 43 43 NW 16 26 30.03 1017 10 16 N/A
4:52 pm 16:52 Mostly Cloudy 54 12.2 31 -0.6 42 42 NNW 10 17 30.04 1017 10 16 N/A
5:52 pm 17:52 Mostly Cloudy 55 12.8 30 -1.1 38 38 N 16 26 30.05 1018 10 16 N/A
6:52 pm 18:52 Mostly Cloudy 53 11.7 28 -2.2 38 38 NNW 13 20 30.07 1018 10 16 N/A
7:52 pm 19:52 Partly Cloudy 52 11.1 29 -1.7 41 41 NNW 12 19 30.08 1019 10 16 N/A
8:52 pm 20:52 Mostly Clear 49 9.4 28 -2.2 44 44 NNW 8 13 30.11 1020 10 16 N/A
9:52 pm 21:52 Mostly Clear 47 8.3 29 -1.7 50 50 NNW 6 9 30.13 1020 10 16 N/A
10:52 pm 22:52 Mostly Clear 45 7.2 28 -2.2 52 52 NW 9 15 30.15 1021 10 16 N/A
11:52 pm 23:52 Clear 44 6.7 23 -5 43 43 NNW 10 17 30.17 1022 10 16 N/A

Powered by AerisWeather